Back to catalog

STARLINK-11567

AliveCommunicationsVLEO
NORAD 62909·PAYLOAD·🇺🇸 United States

Launched Feb 8, 2025 from Cape Canaveral Space Force Station

Loading…

Next Passes (next 24 hours)

TLE

FreshSource: CelesTrak SupGP

Epoch: Sep 14, 2026, 21:23 UTC

1 62909C 25027C   26257.89145833 -.00008095  00000+0 -62894-4 0  2578
2 62909  43.0006 287.5494 0001595 256.9577 150.2967 15.70835877    13

Track STARLINK-11567 in real time with AllMySat

Download on the App Store